Location: Unspecified
(48.8656°N, 0.0000°E)
Time: 20:42:14
(UTC+00:00)

Vanguard 3 - Pass Details

Date: 21 June 2019
Orbit: 507 x 3264 km, 33.4° (Epoch: 15 July)

Event Time Altitude Azimuth Distance (km) Brightness Sun altitude
Rises 13:18:18 0° 243° (WSW) 5,371 11.7 60.4°
Reaches altitude 10° 13:23:17 10° 232° (SW) 3,826 11.2 59.9°
Maximum altitude 13:30:00 23° 186° (S) 2,238 10.2 59.2°
Drops below altitude 10° 13:34:38 10° 135° (SE) 2,518 9.8 58.7°
Sets 13:37:09 0° 119° (ESE) 3,184 10.1 58.4°
